Find Starlink 31522

NORAD ID: 59204 Int'l Des: 2024-046 Owner: SPXS Country: US Constellation: starlink operational
LEOCIRCULAR

实时位置

正在加载3D地球...

关于 Starlink 31522

正在加载描述...

即将过境

Passes for default location (London). Set your location on the main map for personalized predictions.

高度历史

Loading altitude history...

两行轨道根数

1 59204U 24046D 26122.10222009 -.00000093 00000-0 90003-5 0 9995
2 59204 53.1607 267.5033 0001458 94.0875 266.0293 15.30181905121220
Epoch: May 2, 2026 • Age: 11 hours

当前状态

高度 485.8 km
速度 7.62 km/s
星下点 -31.69°S, 178.84°E
发射日期 Mar 11, 2024
运行时间 2.1 years
类型 internet

技术详情

分类 Payload
质量 730.00 kg
干质量 700.00 kg
总质量 730.00 kg
长度 0.30 m
直径 4.10 m
跨度 29.00 m
形状 Box + pan
制造商 SPXS
平台类型 Starlink V2M
阶段状态 In Orbit
所有者/国家 SPXS/US

Most Searched